Retour au catalogue

TITAN 3C TRANSTAGE DEB

LostHEO
NORAD 36982·DEBRIS·🇺🇸 United States

Lancé Dec 21, 1965 depuis Cape Canaveral Space Force Station

Loading…

Prochains Passages (prochaines 24 heures)

TLE

PériméSource: Space-Track

Époque: Sep 15, 2023, 06:09 UTC

1 36982U 65108DN  23258.25669026 -.00005288  00000-0 -11666-1 0  9990
2 36982  27.0562 247.8844 6348737  70.9204 343.6392  3.39370827187951

Suivez TITAN 3C TRANSTAGE DEB en temps réel avec AllMySat

Download on the App Store